Location: Eimen
(51.8766°N, 9.7806°E)
Time: 13:54:12
(UTC+00:00)

Envisat - Pass Details

Date: 18 August 2024
Orbit: 762 x 764 km, 98.3° (Epoch: 08 September)

Event Time Altitude Azimuth Distance (km) Brightness Sun altitude
Rises 01:44:42 0° 22° (NNE) 3,240 7.7 -18.4°
Reaches altitude 10° 01:47:19 10° 34° (NNE) 2,309 6.8 -18.2°
Maximum altitude 01:51:43 29° 93° (E) 1,390 4.7 -17.8°
Drops below altitude 10° 01:56:03 10° 153° (SSE) 2,293 5.2 -17.4°
Enters shadow 01:57:02 - 158° (SSE) 2,630 5.5 -17.3°
